User: anonymous   Login
Location: Hancock Field Station
(44.9202°N, 120.4259°W)
Time: 19:35:48
(UTC-08:00)
Language:

Cosmos 1707 - Orbit

View from above orbital plane
View from above orbital plane
View from above satellite
View from above satellite

Ground track
Ground track

The orbit data is extracted from the following two-line orbital elements,

1 16326U 85113A   17020.89719223  .00000265  00000-0  13183-4 0  9990
2 16326  82.5125 353.0074 0012477  90.1723 270.0937 15.13074593695071
Epoch (UTC): 20 January 2017 21:31:57
Eccentricity: 0.0012477
inclination: 82.5125°
perigee height: 518 km
apogee height: 535 km
right ascension of ascending node: 353.0074°
argument of perigee: 90.1723°
revolutions per day: 15.13074593
mean anomaly at epoch: 270.0937°
orbit number at epoch: 69507

The dashed part of the orbit path shows where the satellite is in the earth's shadow,  

DLR